Wind_Speed
33 34 35 37 41 41 42 44 43 43 43 42 42 43 44 45 45 43 43 42 43 44 44 42 42 42 42 42 42 41 40 40 41 42 42 41 41 41 42 42 42 42 42
29 30 31 32 35 38 39 39 40 42 43 44 45 44 43 43 44 44 42 41 42 43 43 43 42 43 43 44 44 43 42 43 43 43 43 43 43 43 44 44 44 44 44
23 26 28 28 32 35 37 37 38 40 42 42 43 42 41 41 43 43 43 40 41 41 41 42 42 43 43 44 45 44 44 45 45 45 46 45 44 44 45 45 45 45 46
19 20 22 24 26 29 32 33 34 36 37 40 40 39 38 40 39 39 40 40 40 40 41 41 41 42 43 45 46 46 46 46 47 47 46 47 47 47 47 47 47 47 46
14 16 18 18 20 23 27 29 31 31 31 34 36 36 35 37 38 38 38 39 39 39 40 40 42 43 44 45 46 47 47 48 49 49 48 48 49 49 49 49 48 46 46
10 12 14 16 17 19 23 26 29 29 29 30 32 33 34 35 37 38 37 37 38 38 39 40 41 42 43 45 46 47 48 48 49 50 51 50 49 49 49 49 48 47 46
9 10 12 14 14 16 20 22 24 26 28 29 29 32 33 34 36 37 37 37 38 38 38 39 40 41 41 43 44 46 47 48 50 51 52 52 49 48 48 48 47 47 46
9 8 9 11 11 12 15 18 19 21 24 26 27 30 33 34 34 35 36 37 39 38 38 38 39 39 41 43 45 47 48 49 51 52 53 53 51 49 48 48 47 47 46
7 7 7 8 9 9 11 13 16 18 21 22 24 27 30 32 33 34 36 37 38 38 38 39 39 39 40 43 46 47 49 50 50 51 52 52 51 50 50 49 47 47 47
6 6 6 7 8 9 9 10 12 16 18 20 23 25 27 30 31 33 35 36 36 38 40 40 41 42 43 44 46 47 49 49 49 50 51 50 50 50 50 49 49 49 50
4 4 4 6 7 8 9 10 12 14 17 20 22 24 25 27 30 33 35 37 39 40 40 41 42 43 46 48 49 49 49 48 48 48 49 48 47 49 49 50 50 49 48
3 2 4 6 8 9 10 12 13 15 17 19 21 23 25 27 29 32 34 37 39 41 43 44 44 45 46 47 48 48 48 48 48 48 48 48 48 49 49 49 49 48 47
2 2 4 6 8 9 10 11 13 16 17 19 21 23 25 27 29 30 33 35 37 39 41 43 45 45 45 45 46 47 49 49 48 47 46 46 46 47 46 45 45 44 44
1 2 5 6 7 8 10 11 13 15 17 20 22 24 26 28 29 30 31 33 35 37 39 41 43 44 44 45 46 46 46 47 46 47 47 46 45 44 43 43 42 42 42
2 4 6 6 7 8 9 11 13 15 17 19 22 24 26 27 28 29 30 32 34 36 37 39 41 43 43 44 45 45 45 46 47 47 47 45 43 42 41 40 41 41 40
4 5 6 6 7 8 9 11 12 15 16 19 21 23 25 26 26 28 29 32 34 36 37 38 39 41 43 44 45 46 46 45 44 44 43 43 42 41 40 40 39 39 38
4 5 5 6 7 8 9 11 14 16 18 20 21 21 23 23 25 26 29 31 34 36 37 37 38 39 39 40 41 42 43 42 40 41 40 40 40 39 39 39 38 38 39
5 6 7 8 9 10 11 13 15 17 19 21 21 22 23 24 25 28 29 31 33 35 35 36 37 38 38 38 38 38 38 38 38 37 37 37 37 38 37 38 38 36 37
7 8 9 10 11 12 14 15 17 19 21 21 22 23 24 26 27 29 29 30 31 32 34 35 36 37 37 38 37 36 37 36 36 35 35 35 34 35 36 36 36 36 37
8 10 10 11 13 14 16 18 20 21 22 22 23 25 26 27 28 29 29 30 31 32 32 34 34 34 35 35 35 36 36 35 34 34 35 35 35 35 36 36 35 36 36
10 11 12 14 15 17 18 20 21 22 23 24 25 27 28 28 29 28 29 30 31 31 31 32 33 33 33 33 34 34 34 33 33 33 34 35 36 36 36 36 36 36 36
12 13 15 16 18 19 21 22 23 24 25 26 27 28 29 29 29 29 29 30 31 31 31 31 32 32 32 31 32 32 33 32 32 32 33 34 35 36 37 37 37 36 35
14 16 17 18 20 22 23 25 25 25 26 27 29 29 30 30 30 30 31 31 32 32 31 31 31 31 31 31 31 30 30 31 32 32 33 34 34 34 35 34 34 34 33
16 17 19 20 22 23 25 26 27 27 27 28 29 30 30 30 31 32 32 32 33 32 31 31 31 31 31 30 30 29 29 30 30 31 32 33 33 33 33 32 32 32 31
18 20 21 22 23 25 27 28 28 28 29 30 30 30 30 31 31 31 32 33 33 32 32 32 31 31 31 29 29 28 28 29 28 29 30 31 31 31 31 31 30 30 31
21 22 23 25 26 28 29 30 30 30 31 31 31 31 32 32 32 33 33 34 34 34 34 33 32 32 30 29 28 28 27 28 28 28 28 28 28 28 29 29 29 29 30
Wind_Direction
223 224 224 225 226 227 229 229 225 226 227 229 227 230 232 235 237 238 239 241 243 244 246 248 250 251 253 255 256 259 262 264 265 266 267 268 270 271 273 275 276 276 277
222 224 226 228 226 227 226 226 226 228 229 228 229 233 234 234 234 236 237 240 242 245 246 248 250 253 254 255 257 259 261 263 265 266 268 269 270 271 274 275 275 276 276
223 227 227 228 227 225 224 226 228 229 229 229 229 231 232 233 235 239 239 239 242 244 247 250 253 255 257 257 258 259 261 263 264 267 269 270 271 271 272 272 274 274 274
224 226 224 226 225 224 223 223 225 226 229 230 230 229 232 231 233 236 239 241 243 246 249 252 254 257 259 259 260 261 261 263 265 268 269 271 272 273 272 272 273 273 274
216 223 225 224 220 221 220 223 225 227 228 229 229 231 234 235 236 239 241 242 243 247 250 252 256 260 262 262 263 264 264 266 267 268 270 272 274 274 273 273 271 271 272
209 215 215 217 221 222 223 227 228 229 229 231 235 236 238 239 239 241 242 244 246 248 252 256 257 260 263 265 266 265 265 267 268 268 269 271 273 273 273 272 270 270 271
193 203 209 214 219 224 225 228 231 233 234 236 238 240 240 240 242 243 245 248 248 250 254 258 260 262 265 266 266 266 267 268 269 268 268 270 271 271 270 269 269 270 270
183 196 208 214 221 221 222 227 232 234 235 235 236 242 242 244 246 247 249 252 253 255 258 261 262 263 265 266 267 266 267 268 269 269 269 270 270 269 268 268 268 269 269
171 181 195 210 219 225 229 236 235 235 235 237 241 245 247 250 252 254 255 256 258 258 259 261 262 264 266 267 267 268 268 270 270 270 271 271 269 269 268 268 268 268 269
169 179 202 223 236 235 239 243 245 243 243 246 253 254 253 256 257 259 259 258 259 261 261 262 265 267 269 270 270 269 269 270 270 271 271 271 269 270 269 267 267 267 269
170 188 218 241 252 249 251 253 253 252 255 258 261 261 261 260 259 260 262 261 261 262 265 267 269 271 271 271 270 270 270 271 271 272 271 271 271 271 270 267 266 267 267
168 212 248 249 256 257 257 257 257 262 265 265 264 264 265 265 265 265 264 263 264 265 267 270 271 273 273 271 269 270 271 272 273 273 272 271 270 270 270 268 267 266 266
184 250 280 272 268 265 263 264 266 270 269 270 270 270 270 269 269 269 268 267 267 268 270 273 273 273 272 271 270 271 271 271 272 271 271 271 270 270 270 268 266 265 265
234 296 310 297 287 287 283 282 281 280 278 276 276 276 273 272 273 273 272 271 271 272 273 274 274 274 273 272 271 272 271 270 270 270 270 270 270 269 268 264 263 265 265
315 321 327 321 311 309 300 293 290 290 289 286 284 281 277 276 278 279 276 275 276 277 278 278 277 275 276 275 273 273 272 272 271 270 269 268 266 266 264 263 263 263 263
343 334 331 328 320 316 315 309 304 300 299 297 294 289 283 280 281 283 280 280 280 280 282 282 281 280 278 277 276 275 274 275 273 271 269 266 265 264 264 264 263 262 262
10 2 348 339 336 326 326 322 317 313 309 305 300 296 291 286 284 284 284 285 284 283 283 284 284 282 281 279 277 275 274 275 274 272 269 265 263 262 262 261 260 261 261
9 359 353 346 338 334 333 330 326 322 319 315 308 302 296 290 289 288 288 288 286 285 286 286 286 283 282 280 279 277 277 277 274 272 271 267 264 261 260 260 261 261 260
352 348 345 340 337 333 329 325 323 322 321 319 316 311 305 299 296 294 291 292 291 289 288 288 287 285 283 281 279 278 278 277 274 271 268 265 262 261 260 260 259 259 260
336 338 338 336 331 328 325 323 320 320 320 320 319 316 312 307 302 299 295 294 293 291 290 290 290 289 285 281 279 278 276 275 272 269 265 263 260 260 260 258 259 259 260
322 326 328 329 327 325 322 321 319 318 317 317 317 316 314 311 308 303 300 298 296 294 294 294 293 293 289 284 281 278 276 274 272 267 264 262 260 259 258 259 259 259 259
315 317 320 322 323 322 322 320 318 316 314 314 314 314 314 313 309 305 303 300 298 297 298 299 298 296 294 288 283 279 276 273 270 267 262 260 260 260 258 257 256 257 257
313 314 316 318 320 321 321 320 318 315 314 312 311 311 312 310 307 305 303 301 299 297 296 297 298 297 295 291 285 280 276 270 268 266 263 260 260 259 257 255 255 254 255
311 314 316 317 317 318 318 318 317 315 314 314 313 312 311 309 307 306 304 302 301 300 297 296 297 296 295 292 287 282 277 272 269 266 264 261 259 260 259 255 255 254 255
306 310 313 315 316 317 317 317 316 314 314 313 313 313 311 308 307 306 305 303 303 301 299 297 296 296 295 293 290 285 280 274 271 269 265 261 260 261 259 255 255 255 255
303 306 309 311 312 313 315 315 313 313 313 312 312 311 310 308 307 306 306 304 302 301 299 297 295 296 296 292 289 285 281 277 273 267 263 262 261 261 258 255 258 258 256
Height
5680 5684 5690 5694 5699 5704 5710 5715 5721 5727 5733 5738 5744 5748 5753 5757 5762 5766 5769 5772 5775 5778 5781 5783 5785 5787 5789 5790 5791 5791 5792 5793 5793 5793 5793 5793 5793 5793 5792 5792 5791 5790 5789
5676 5680 5684 5688 5693 5697 5702 5707 5713 5719 5725 5731 5736 5741 5745 5749 5753 5757 5760 5763 5767 5769 5772 5774 5776 5778 5779 5780 5781 5782 5782 5783 5783 5783 5782 5783 5784 5784 5783 5782 5781 5780 5779
5673 5676 5680 5684 5687 5691 5696 5701 5706 5712 5718 5722 5727 5733 5736 5740 5745 5748 5752 5755 5759 5761 5763 5765 5767 5768 5769 5771 5771 5772 5772 5773 5773 5772 5772 5771 5772 5772 5773 5771 5770 5768 5767
5671 5673 5676 5679 5683 5687 5691 5695 5700 5705 5710 5716 5721 5725 5730 5734 5738 5741 5744 5747 5750 5753 5755 5756 5757 5759 5760 5760 5761 5761 5761 5761 5762 5762 5761 5760 5759 5758 5759 5759 5758 5756 5755
5668 5671 5674 5677 5679 5683 5687 5691 5696 5700 5704 5709 5714 5718 5722 5726 5730 5733 5736 5739 5741 5743 5745 5746 5747 5748 5749 5750 5750 5750 5750 5750 5750 5750 5749 5748 5747 5745 5744 5744 5744 5743 5743
5666 5669 5672 5675 5677 5680 5684 5687 5691 5695 5699 5703 5707 5712 5716 5719 5722 5725 5728 5730 5732 5734 5735 5736 5737 5738 5738 5739 5738 5738 5738 5738 5737 5736 5736 5735 5734 5733 5731 5731 5731 5731 5731
5665 5667 5670 5673 5675 5677 5679 5683 5686 5689 5693 5697 5701 5705 5709 5711 5714 5717 5720 5722 5723 5725 5726 5727 5728 5728 5728 5727 5727 5726 5726 5725 5724 5723 5723 5722 5721 5720 5719 5718 5718 5718 5718
5664 5666 5668 5671 5673 5674 5676 5679 5682 5685 5688 5691 5694 5697 5701 5703 5706 5709 5711 5713 5715 5716 5717 5717 5718 5718 5717 5716 5715 5715 5714 5713 5711 5710 5709 5708 5708 5707 5706 5706 5705 5704 5705
5663 5665 5666 5669 5671 5672 5674 5675 5677 5679 5682 5685 5688 5690 5693 5696 5698 5699 5702 5703 5704 5706 5706 5707 5707 5706 5706 5705 5703 5702 5701 5699 5698 5697 5696 5695 5694 5694 5693 5693 5692 5691 5691
5662 5664 5665 5667 5668 5669 5670 5671 5672 5674 5676 5679 5681 5683 5685 5687 5689 5690 5691 5693 5694 5695 5695 5696 5696 5695 5693 5692 5691 5689 5688 5686 5685 5683 5682 5681 5681 5680 5679 5679 5678 5678 5677
5661 5662 5663 5664 5664 5665 5665 5666 5667 5668 5670 5672 5673 5674 5676 5678 5679 5681 5682 5683 5684 5684 5684 5684 5683 5682 5681 5679 5678 5677 5675 5673 5672 5670 5669 5668 5667 5666 5665 5664 5664 5663 5663
5659 5660 5661 5661 5661 5661 5661 5661 5662 5663 5664 5665 5665 5666 5667 5668 5669 5670 5670 5671 5672 5672 5672 5671 5670 5669 5667 5666 5665 5664 5662 5660 5659 5658 5656 5655 5654 5653 5651 5650 5650 5650 5650
5658 5658 5658 5657 5657 5656 5656 5657 5657 5657 5657 5657 5657 5658 5658 5659 5659 5659 5659 5659 5660 5659 5659 5658 5657 5655 5654 5652 5651 5650 5649 5648 5646 5645 5644 5642 5641 5640 5638 5637 5637 5637 5638
5655 5655 5654 5653 5652 5651 5651 5651 5651 5650 5650 5650 5649 5649 5649 5649 5649 5649 5648 5648 5648 5647 5646 5645 5644 5642 5640 5639 5637 5636 5635 5634 5633 5632 5631 5630 5628 5627 5626 5625 5625 5626 5627
5653 5652 5651 5650 5648 5647 5646 5646 5645 5645 5643 5642 5641 5640 5640 5639 5639 5639 5638 5637 5637 5636 5635 5633 5630 5628 5627 5625 5623 5622 5621 5620 5619 5618 5617 5616 5616 5615 5614 5614 5615 5615 5616
5651 5650 5649 5648 5646 5644 5643 5641 5640 5639 5637 5636 5634 5632 5631 5631 5630 5629 5628 5627 5626 5625 5623 5620 5618 5616 5614 5611 5609 5608 5607 5606 5605 5604 5604 5603 5603 5603 5603 5603 5604 5605 5606
5649 5648 5647 5645 5644 5642 5640 5638 5636 5634 5632 5630 5627 5625 5624 5622 5621 5620 5619 5617 5615 5613 5610 5607 5605 5603 5601 5598 5596 5594 5593 5592 5592 5591 5591 5591 5591 5592 5592 5593 5594 5595 5596
5647 5646 5645 5643 5641 5639 5637 5635 5633 5630 5628 5625 5622 5619 5616 5614 5613 5611 5609 5607 5604 5601 5599 5597 5594 5591 5589 5586 5584 5582 5580 5580 5579 5579 5579 5579 5580 5581 5582 5584 5585 5585 5586
5646 5644 5643 5641 5639 5637 5635 5632 5629 5626 5623 5619 5616 5613 5610 5607 5605 5602 5600 5597 5594 5591 5589 5586 5583 5580 5577 5574 5572 5570 5569 5569 5568 5568 5568 5568 5570 5571 5573 5574 5575 5576 5578
5644 5642 5640 5638 5636 5634 5631 5628 5625 5621 5617 5614 5610 5607 5603 5600 5596 5593 5590 5587 5584 5582 5579 5576 5572 5568 5565 5563 5561 5560 5559 5559 5558 5558 5558 5559 5560 5561 5563 5564 5566 5567 5569
5641 5640 5638 5635 5633 5630 5627 5623 5620 5616 5612 5609 5605 5601 5597 5593 5588 5585 5582 5579 5576 5573 5569 5566 5563 5559 5556 5553 5551 5550 5549 5548 5548 5547 5548 5549 5550 5551 5553 5555 5556 5558 5559
5638 5636 5634 5632 5629 5625 5622 5618 5614 5610 5606 5603 5599 5594 5590 5585 5581 5578 5574 5571 5567 5564 5560 5557 5553 5550 5546 5544 5542 5540 5539 5538 5538 5538 5538 5539 5540 5541 5543 5544 5546 5548 5549
5634 5632 5630 5627 5624 5620 5616 5613 5608 5604 5600 5596 5592 5588 5583 5579 5575 5571 5567 5563 5559 5555 5552 5549 5546 5542 5538 5535 5533 5531 5529 5529 5529 5528 5529 5530 5531 5531 5533 5535 5536 5538 5540
5630 5627 5625 5622 5618 5615 5611 5607 5602 5598 5594 5590 5586 5581 5576 5572 5568 5563 5559 5555 5551 5547 5544 5541 5538 5534 5531 5527 5525 5522 5521 5519 5519 5519 5519 5520 5521 5522 5523 5525 5527 5528 5530
5624 5622 5619 5616 5612 5609 5605 5601 5596 5592 5588 5583 5579 5574 5569 5565 5561 5556 5552 5548 5544 5540 5537 5534 5530 5527 5523 5520 5517 5514 5512 5511 5510 5510 5510 5510 5511 5512 5514 5516 5518 5519 5521
5618 5616 5613 5610 5606 5602 5598 5594 5589 5585 5581 5576 5572 5567 5563 5558 5553 5549 5544 5540 5536 5532 5528 5525 5521 5518 5514 5511 5508 5506 5504 5502 5502 5501 5501 5502 5503 5504 5505 5507 5508 5510 5512